Погода в Веневе

Россия / Тульская область     54°21′01″N   38°15′55″E
темп.,
°C
ветер,
м/с
пор.,
м/с
влажн.,
%
обл.,
%
осадки,
мм/ч
давл.,
гПа
погр.,
м
20 сентября, пн
пн2000:00+7в91695100 10.4 1014924
03:00+7вюв81494100 11.0 1013810
06:00+7в81496100 1.1 1012831
09:00+6в91594100 3.3 1012728
12:00+6в91494100 0.1 1013730
15:00+6в81493100 0.1 1013656
18:00+6в81495100 3.8 1013653
21:00+6в81496100 8.9 1013568
21 сентября, вт
вт2100:00+6вюв71396100 3.8 1013597
03:00+6вюв61097100 5.3 1012507
06:00+7вюв51097100 0.4 1012421
09:00+7вюв5897100 0.6 1012377
12:00+8вюв5695100 0.2 1012411
15:00+9в3696100 1.2 1011299
18:00+8в3696100 1.3 1011256
21:00+8всв2498100 1.9 1011186
22 сентября, ср
ср2200:00+8всв1198100 0.5 101195
03:00+7ссв229898 0.9 1010152
06:00+7с2398100 0.1 1010216
09:00+7с2397100 0.1 1010329
12:00+8ссв2293100 0.1 1011491
15:00+8ссв3392100 0.6 1011409
18:00+8ссв3596100 0.9 1012280
21:00+7св3696100 1.7 1012315
23 сентября, чт
чт2300:00+8всв2498100 0.3 1013251
03:00+7ююв3695100 0.4 1013355
06:00+7ю3695100 0.1 1014272
09:00+8ююв3590100 0.3 1015300
12:00+10ю4577100 0.1 1015855
15:00+10ю4573100 0.6 10151041
18:00+8ю2486100 0.3 1015256
21:00+7ююв258897 0.5 1015249
24 сентября, пт
пт2400:00+7ююв2590100 0.1 1015216
03:00+7ююз249381 0.3 1015246
06:00+6ююв3591100 0.1 1014242
09:00+7ю3687100 0.2 1013422
12:00+8ю5778100 0.0 1012672
15:00+9ююз566686 0.0 1010975
18:00+8ю377682 0.0 1010185
21:00+8ююз4978100 0.1 1010451